Погода в Панчево

Украина / Кировоградская область     48°44′33″N   31°51′33″E
темп.,
°C
ветер,
м/с
пор.,
м/с
влажн.,
%
обл.,
%
осадки,
мм/ч
давл.,
гПа
погр.,
м
13 мая, чт
чт1300:00+5вюв119290 0.0 101210
03:00+5зсз0091100 0.0 101210
06:00+5ю2391100 0.0 101243
09:00+11ююв346737 0.0 1012627
12:00+15ююв565143 0.0 10111505
15:00+14ю256340 0.0 1011735
18:00+15ююв5965100 0.0 1010460
21:00+13ююв4974100 0.0 1010246
14 мая, пт
пт1400:00+13юв71369100 0.0 1010360
03:00+10юв498386 0.0 1009162
06:00+11юв378693 0.0 1008147
09:00+16ююв467171 0.2 1008517
12:00+20ю5753100 0.0 10071319
15:00+21ю7105399 0.0 10062086
18:00+18юз8106826 0.6 10071125
21:00+13юз36875 0.6 100893
15 мая, сб
сб1500:00+11юз339229 0.0 101036
03:00+12ююз3589100 0.0 1010125
06:00+11ююз3592100 0.0 1011138
09:00+17юз466813 0.0 1012677
12:00+20юз575328 0.0 10121632
15:00+22зюз564598 0.0 10122352
18:00+18зсз3365100 0.0 101270
21:00+16ссв226965 0.1 101321
16 мая, вс
вс1600:00+13всв22805 0.0 101315
03:00+12ссв11865 0.0 101311
06:00+12всв22864 0.0 101321
09:00+18всв236619 0.0 1013427
12:00+22в3350100 0.0 10121506
15:00+24вюв344290 0.0 10112196
18:00+24в244985 0.0 10101167
21:00+19всв4967100 0.0 1009190
17 мая, пн
пн1700:00+18всв4106599 0.1 1008200
03:00+15всв2378100 0.5 100834
06:00+15юв41195100 2.6 1007345
09:00+17сз3589100 4.4 1006286
12:00+19сз6681100 0.3 1006836
15:00+15зсз5893100 0.8 1007381
18:00+15сз4792100 0.4 1007276
21:00+13сз34975 0.4 100896